Time,TemperatureF,DewpointF,PressureIn,WindDirection,WindDirectionDegrees,WindSpeedMPH,WindSpeedGustMPH,Humidity,HourlyPrecipIn,Conditions,Clouds,dailyrainin,SoftwareType,DateUTC
2013-02-20 00:10:00,7.6,-2.0,30.46,West,276,7.0,9.0,66,0.00,,,0.00,weatherlink.com 1.10,2013-02-20 06:10:00,
2013-02-20 00:26:00,7.6,-2.0,30.46,West,270,6.0,12.0,65,0.00,,,0.00,weatherlink.com 1.10,2013-02-20 06:26:00,
2013-02-20 00:41:00,7.5,-2.0,30.48,WNW,294,9.0,12.0,64,0.00,,,0.00,weatherlink.com 1.10,2013-02-20 06:41:00,
2013-02-20 00:56:00,7.6,-2.0,30.48,West,259,10.0,14.0,64,0.00,,,0.00,weatherlink.com 1.10,2013-02-20 06:56:00,
2013-02-20 01:11:00,6.9,-3.0,30.49,West,267,5.0,11.0,65,0.00,,,0.00,weatherlink.com 1.10,2013-02-20 07:11:00,
2013-02-20 01:26:00,7.0,-2.0,30.49,West,268,10.0,12.0,66,0.00,,,0.00,weatherlink.com 1.10,2013-02-20 07:26:00,
2013-02-20 01:41:00,7.1,-2.0,30.50,West,275,6.0,12.0,65,0.00,,,0.00,weatherlink.com 1.10,2013-02-20 07:41:00,
2013-02-20 01:56:00,6.5,-2.0,30.50,WSW,252,6.0,8.0,67,0.00,,,0.00,weatherlink.com 1.10,2013-02-20 07:56:00,
2013-02-20 02:11:00,5.9,0.0,30.50,WSW,254,0.0,6.0,76,0.00,,,0.00,weatherlink.com 1.10,2013-02-20 08:11:00,
2013-02-20 02:26:00,6.4,-2.0,30.51,West,276,5.0,9.0,69,0.00,,,0.00,weatherlink.com 1.10,2013-02-20 08:26:00,
2013-02-20 02:41:00,6.1,-2.0,30.51,West,271,2.0,9.0,69,0.00,,,0.00,weatherlink.com 1.10,2013-02-20 08:41:00,
2013-02-20 02:56:00,6.3,-2.0,30.51,NW,314,8.0,11.0,70,0.00,,,0.00,weatherlink.com 1.10,2013-02-20 08:56:00,
2013-02-20 03:11:00,6.0,-2.0,30.52,NW,320,10.0,13.0,71,0.00,,,0.00,weatherlink.com 1.10,2013-02-20 09:11:00,
2013-02-20 03:26:00,6.2,-2.0,30.52,NW,325,4.0,13.0,70,0.00,,,0.00,weatherlink.com 1.10,2013-02-20 09:26:00,
2013-02-20 03:42:00,6.0,-2.0,30.52,West,264,6.0,12.0,70,0.00,,,0.00,weatherlink.com 1.10,2013-02-20 09:42:00,
2013-02-20 03:57:00,5.5,-2.0,30.53,West,263,5.0,9.0,71,0.00,,,0.00,weatherlink.com 1.10,2013-02-20 09:57:00,
2013-02-20 04:12:00,4.9,-2.0,30.54,West,274,3.0,7.0,72,0.00,,,0.00,weatherlink.com 1.10,2013-02-20 10:12:00,
2013-02-20 04:27:00,5.1,-2.0,30.53,West,265,4.0,8.0,72,0.00,,,0.00,weatherlink.com 1.10,2013-02-20 10:27:00,
2013-02-20 04:42:00,5.2,-2.0,30.54,West,271,3.0,10.0,73,0.00,,,0.00,weatherlink.com 1.10,2013-02-20 10:42:00,
2013-02-20 04:57:00,5.2,-2.0,30.55,WNW,292,2.0,7.0,73,0.00,,,0.00,weatherlink.com 1.10,2013-02-20 10:57:00,
2013-02-20 05:12:00,5.1,-2.0,30.55,West,275,1.0,9.0,73,0.00,,,0.00,weatherlink.com 1.10,2013-02-20 11:12:00,
2013-02-20 05:27:00,4.7,-2.0,30.54,West,267,5.0,6.0,74,0.00,,,0.00,weatherlink.com 1.10,2013-02-20 11:27:00,
2013-02-20 05:42:00,5.1,-2.0,30.55,West,276,0.0,9.0,74,0.00,,,0.00,weatherlink.com 1.10,2013-02-20 11:42:00,
2013-02-20 05:57:00,5.1,-2.0,30.55,NW,323,5.0,12.0,74,0.00,,,0.00,weatherlink.com 1.10,2013-02-20 11:57:00,
2013-02-20 06:12:00,5.1,-2.0,30.55,NW,323,2.0,12.0,74,0.00,,,0.00,weatherlink.com 1.10,2013-02-20 12:12:00,
2013-02-20 06:27:00,4.7,-2.0,30.55,NNW,327,8.0,12.0,74,0.00,,,0.00,weatherlink.com 1.10,2013-02-20 12:27:00,
2013-02-20 06:42:00,4.5,-2.0,30.55,NW,316,9.0,11.0,74,0.00,,,0.00,weatherlink.com 1.10,2013-02-20 12:42:00,
2013-02-20 06:58:00,4.5,-2.0,30.56,NNW,327,5.0,9.0,75,0.00,,,0.00,weatherlink.com 1.10,2013-02-20 12:58:00,
2013-02-20 07:13:00,4.3,-2.0,30.56,NW,325,6.0,15.0,75,0.00,,,0.00,weatherlink.com 1.10,2013-02-20 13:13:00,
2013-02-20 07:28:00,4.3,-2.0,30.57,NW,322,12.0,12.0,75,0.00,,,0.00,weatherlink.com 1.10,2013-02-20 13:28:00,
2013-02-20 07:43:00,4.5,-2.0,30.56,NNW,339,7.0,13.0,75,0.00,,,0.00,weatherlink.com 1.10,2013-02-20 13:43:00,
2013-02-20 07:58:00,4.9,-1.0,30.56,NNW,331,10.0,14.0,75,0.00,,,0.00,weatherlink.com 1.10,2013-02-20 13:58:00,
2013-02-20 08:13:00,5.0,-1.0,30.57,NW,323,7.0,15.0,75,0.00,,,0.00,weatherlink.com 1.10,2013-02-20 14:13:00,
2013-02-20 08:28:00,5.0,1.0,30.57,NW,308,14.0,16.0,83,0.00,,,0.00,weatherlink.com 1.10,2013-02-20 14:28:00,
2013-02-20 08:43:00,5.3,-1.0,30.56,NNW,336,12.0,15.0,74,0.00,,,0.00,weatherlink.com 1.10,2013-02-20 14:43:00,
2013-02-20 08:58:00,5.9,-1.0,30.57,NW,314,14.0,15.0,74,0.00,,,0.00,weatherlink.com 1.10,2013-02-20 14:58:00,
2013-02-20 09:13:00,5.9,0.0,30.57,NW,323,10.0,15.0,75,0.00,,,0.00,weatherlink.com 1.10,2013-02-20 15:13:00,
2013-02-20 09:28:00,6.2,0.0,30.57,NW,312,3.0,14.0,75,0.00,,,0.00,weatherlink.com 1.10,2013-02-20 15:28:00,
2013-02-20 09:43:00,7.0,1.0,30.57,NW,311,2.0,15.0,75,0.00,,,0.00,weatherlink.com 1.10,2013-02-20 15:43:00,
2013-02-20 09:58:00,8.0,2.0,30.57,NW,317,7.0,14.0,75,0.00,,,0.00,weatherlink.com 1.10,2013-02-20 15:58:00,
2013-02-20 10:14:00,8.7,2.0,30.57,NNW,336,7.0,12.0,74,0.00,,,0.00,weatherlink.com 1.10,2013-02-20 16:14:00,
2013-02-20 10:29:00,8.9,2.0,30.57,NW,324,7.0,11.0,74,0.00,,,0.00,weatherlink.com 1.10,2013-02-20 16:29:00,
2013-02-20 10:44:00,9.8,3.0,30.58,WNW,286,0.0,12.0,75,0.00,,,0.00,weatherlink.com 1.10,2013-02-20 16:44:00,
2013-02-20 10:59:00,10.5,3.0,30.58,West,259,10.0,12.0,73,0.00,,,0.00,weatherlink.com 1.10,2013-02-20 16:59:00,
2013-02-20 11:14:00,11.3,5.0,30.57,NNW,341,7.0,10.0,75,0.00,,,0.00,weatherlink.com 1.10,2013-02-20 17:14:00,
2013-02-20 11:44:00,13.0,6.0,30.56,NW,325,3.0,10.0,72,0.00,,,0.00,weatherlink.com 1.10,2013-02-20 17:44:00,
2013-02-20 11:59:00,13.5,6.0,30.55,WNW,293,5.0,10.0,71,0.00,,,0.00,weatherlink.com 1.10,2013-02-20 17:59:00,
2013-02-20 12:14:00,13.6,6.0,30.54,WNW,302,7.0,12.0,71,0.00,,,0.00,weatherlink.com 1.10,2013-02-20 18:14:00,
2013-02-20 12:29:00,14.0,6.0,30.54,NW,324,2.0,11.0,70,0.00,,,0.00,weatherlink.com 1.10,2013-02-20 18:29:00,
2013-02-20 12:44:00,16.0,7.0,30.54,West,272,6.0,9.0,69,0.00,,,0.00,weatherlink.com 1.10,2013-02-20 18:44:00,
2013-02-20 12:59:00,16.1,7.0,30.55,West,277,1.0,11.0,67,0.00,,,0.00,weatherlink.com 1.10,2013-02-20 18:59:00,
2013-02-20 13:14:00,17.2,8.0,30.55,WSW,244,0.0,8.0,67,0.00,,,0.00,weatherlink.com 1.10,2013-02-20 19:14:00,
2013-02-20 13:29:00,18.3,8.0,30.56,West,270,1.0,8.0,65,0.00,,,0.00,weatherlink.com 1.10,2013-02-20 19:29:00,
2013-02-20 13:45:00,19.2,8.0,30.56,WNW,298,0.0,5.0,62,0.00,,,0.00,weatherlink.com 1.10,2013-02-20 19:45:00,
2013-02-20 14:00:00,21.0,9.0,30.57,WNW,298,0.0,4.0,59,0.00,,,0.00,weatherlink.com 1.10,2013-02-20 20:00:00,
2013-02-20 14:15:00,20.7,8.0,30.56,WNW,285,0.0,8.0,59,0.00,,,0.00,weatherlink.com 1.10,2013-02-20 20:15:00,
2013-02-20 14:30:00,21.2,9.0,30.56,WNW,302,4.0,7.0,59,0.00,,,0.00,weatherlink.com 1.10,2013-02-20 20:30:00,
2013-02-20 14:45:00,20.9,9.0,30.56,NW,306,4.0,7.0,59,0.00,,,0.00,weatherlink.com 1.10,2013-02-20 20:45:00,
2013-02-20 15:00:00,21.5,9.0,30.55,NW,310,7.0,8.0,58,0.00,,,0.00,weatherlink.com 1.10,2013-02-20 21:00:00,
2013-02-20 15:15:00,20.6,9.0,30.55,NNW,333,3.0,9.0,60,0.00,,,0.00,weatherlink.com 1.10,2013-02-20 21:15:00,
2013-02-20 15:30:00,20.6,9.0,30.54,NNE,12,8.0,12.0,61,0.00,,,0.00,weatherlink.com 1.10,2013-02-20 21:30:00,
2013-02-20 15:45:00,21.2,10.0,30.54,WNW,301,2.0,13.0,61,0.00,,,0.00,weatherlink.com 1.10,2013-02-20 21:45:00,
2013-02-20 16:00:00,20.8,9.0,30.54,NNW,335,6.0,11.0,61,0.00,,,0.00,weatherlink.com 1.10,2013-02-20 22:00:00,
2013-02-20 16:15:00,20.3,9.0,30.54,NW,311,12.0,15.0,61,0.00,,,0.00,weatherlink.com 1.10,2013-02-20 22:15:00,
2013-02-20 16:30:00,20.2,9.0,30.54,NW,314,8.0,14.0,62,0.00,,,0.00,weatherlink.com 1.10,2013-02-20 22:30:00,
2013-02-20 16:45:00,20.2,9.0,30.54,NNW,336,7.0,13.0,62,0.00,,,0.00,weatherlink.com 1.10,2013-02-20 22:45:00,
2013-02-20 17:00:00,20.2,9.0,30.53,West,268,7.0,13.0,63,0.00,,,0.00,weatherlink.com 1.10,2013-02-20 23:00:00,
2013-02-20 17:16:00,20.0,9.0,30.54,NW,323,4.0,13.0,63,0.00,,,0.00,weatherlink.com 1.10,2013-02-20 23:16:00,
2013-02-20 17:31:00,20.1,9.0,30.53,NW,316,6.0,13.0,63,0.00,,,0.00,weatherlink.com 1.10,2013-02-20 23:31:00,
2013-02-20 17:46:00,20.0,10.0,30.53,NW,316,5.0,11.0,64,0.00,,,0.00,weatherlink.com 1.10,2013-02-20 23:46:00,
2013-02-20 18:01:00,19.9,9.0,30.53,NNW,327,11.0,13.0,64,0.00,,,0.00,weatherlink.com 1.10,2013-02-21 00:01:00,
2013-02-20 18:16:00,19.7,9.0,30.54,North,355,8.0,12.0,63,0.00,,,0.00,weatherlink.com 1.10,2013-02-21 00:16:00,
2013-02-20 18:31:00,19.5,9.0,30.53,NNW,346,0.0,14.0,64,0.00,,,0.00,weatherlink.com 1.10,2013-02-21 00:31:00,
2013-02-20 18:46:00,19.1,9.0,30.54,NNW,333,7.0,11.0,64,0.00,,,0.00,weatherlink.com 1.10,2013-02-21 00:46:00,
2013-02-20 19:01:00,19.1,9.0,30.54,NNW,327,8.0,10.0,65,0.00,,,0.00,weatherlink.com 1.10,2013-02-21 01:01:00,
2013-02-20 19:16:00,18.7,9.0,30.54,NNW,329,1.0,10.0,66,0.00,,,0.00,weatherlink.com 1.10,2013-02-21 01:16:00,
2013-02-20 19:31:00,18.5,9.0,30.53,NW,320,4.0,10.0,66,0.00,,,0.00,weatherlink.com 1.10,2013-02-21 01:31:00,
2013-02-20 19:46:00,18.0,9.0,30.53,NNW,340,8.0,10.0,68,0.00,,,0.00,weatherlink.com 1.10,2013-02-21 01:46:00,
2013-02-20 20:01:00,17.9,9.0,30.53,NNW,331,2.0,8.0,68,0.00,,,0.00,weatherlink.com 1.10,2013-02-21 02:01:00,
2013-02-20 20:16:00,17.7,9.0,30.53,NNW,344,10.0,11.0,69,0.00,,,0.00,weatherlink.com 1.10,2013-02-21 02:16:00,
2013-02-20 20:32:00,17.3,9.0,30.53,NNW,344,7.0,9.0,70,0.00,,,0.00,weatherlink.com 1.10,2013-02-21 02:32:00,
2013-02-20 20:47:00,17.2,9.0,30.52,NNW,344,1.0,11.0,70,0.00,,,0.00,weatherlink.com 1.10,2013-02-21 02:47:00,
2013-02-20 21:02:00,17.1,9.0,30.52,NNW,341,6.0,9.0,70,0.00,,,0.00,weatherlink.com 1.10,2013-02-21 03:02:00,
2013-02-20 21:17:00,16.8,9.0,30.53,NNW,334,6.0,8.0,71,0.00,,,0.00,weatherlink.com 1.10,2013-02-21 03:17:00,
2013-02-20 21:32:00,16.6,9.0,30.53,NNW,333,2.0,8.0,72,0.00,,,0.00,weatherlink.com 1.10,2013-02-21 03:32:00,
2013-02-20 21:47:00,16.7,9.0,30.54,NNW,333,3.0,5.0,73,0.00,,,0.00,weatherlink.com 1.10,2013-02-21 03:47:00,
2013-02-20 22:02:00,16.6,9.0,30.54,NNW,333,0.0,2.0,73,0.00,,,0.00,weatherlink.com 1.10,2013-02-21 04:02:00,
2013-02-20 22:17:00,16.6,9.0,30.54,NNW,333,1.0,1.0,72,0.00,,,0.00,weatherlink.com 1.10,2013-02-21 04:17:00,
2013-02-20 22:32:00,16.0,9.0,30.54,NNW,333,2.0,5.0,74,0.00,,,0.00,weatherlink.com 1.10,2013-02-21 04:32:00,
2013-02-20 22:47:00,15.5,9.0,30.54,NNW,333,0.0,4.0,75,0.00,,,0.00,weatherlink.com 1.10,2013-02-21 04:47:00,
2013-02-20 23:02:00,15.4,9.0,30.54,NNW,336,5.0,7.0,75,0.00,,,0.00,weatherlink.com 1.10,2013-02-21 05:02:00,
2013-02-20 23:17:00,15.1,9.0,30.54,North,355,2.0,7.0,76,0.00,,,0.00,weatherlink.com 1.10,2013-02-21 05:17:00,
2013-02-20 23:32:00,15.0,9.0,30.54,North,355,0.0,5.0,76,0.00,,,0.00,weatherlink.com 1.10,2013-02-21 05:32:00,
2013-02-20 23:47:00,15.0,9.0,30.55,North,355,1.0,6.0,76,0.00,,,0.00,weatherlink.com 1.10,2013-02-21 05:47:00,